�N����,����,�~����,�C��,���x,�C��,����,���ϕ���,�ő�u�ԕ���,�ő厞����,���˗�,�I�_���x,�n�����x,�ő啗���N��,DTYPE
"22/03/19","00:10",0.0,10.5,95.5,995.1,298.5,3.4,5.4,333.0,0.00,9.9,11.2,"00:03:20",1
"22/03/19","00:20",0.0,10.4,95.3,994.6,303.0,3.2,6.0,331.8,0.00,9.7,11.0,"00:17:44",1
"22/03/19","00:30",0.0,10.4,95.0,994.4,313.8,2.6,4.8,318.8,0.00,9.7,11.2,"00:21:28",1
"22/03/19","00:40",0.0,10.6,94.3,994.6,302.6,3.6,5.9,320.1,0.00,9.8,11.0,"00:33:36",1
"22/03/19","00:50",0.0,10.7,93.7,994.6,325.9,2.3,4.9,327.8,0.00,9.8,11.1,"00:41:28",1
"22/03/19","01:00",0.0,10.6,93.2,995.1,328.5,2.0,4.4,342.7,0.00,9.6,10.9,"00:50:56",1
"22/03/19","01:10",0.0,10.6,92.6,995.1,302.8,2.0,3.4,339.0,0.00,9.5,10.9,"01:05:12",1
"22/03/19","01:20",0.0,10.7,91.8,995.1,266.2,2.8,5.2,247.4,0.00,9.5,11.1,"01:17:20",1
"22/03/19","01:30",0.0,10.7,90.9,995.6,263.0,3.4,7.2,235.8,0.00,9.3,10.9,"01:23:52",1
"22/03/19","01:40",0.0,10.9,89.6,995.6,296.7,4.4,11.7,294.1,0.00,9.3,10.9,"01:33:44",1
"22/03/19","01:50",0.0,10.9,88.1,995.8,296.8,6.2,11.9,328.8,0.00,9.0,10.8,"01:46:58",1
"22/03/19","02:00",0.0,10.8,87.0,996.5,313.3,5.9,9.0,317.8,0.00,8.8,10.9,"01:55:52",1
"22/03/19","02:10",0.0,10.8,86.4,996.3,326.8,4.6,7.2,315.2,0.00,8.7,11.1,"02:09:52",1
"22/03/19","02:20",0.0,10.7,86.0,996.5,301.1,3.9,6.6,332.7,0.00,8.5,10.8,"02:14:56",1
"22/03/19","02:30",0.0,10.7,85.8,996.3,303.3,3.0,5.0,295.8,0.00,8.5,10.9,"02:26:16",1
"22/03/19","02:40",0.0,10.6,85.8,996.7,273.3,1.7,3.2,327.2,0.00,8.4,11.0,"02:37:28",1
"22/03/19","02:50",0.0,10.5,85.8,996.5,257.6,2.0,3.1,313.9,0.00,8.3,11.0,"02:40:08",1
"22/03/19","03:00",0.0,10.5,85.7,996.3,264.4,1.7,2.6,252.8,0.00,8.2,10.9,"02:59:12",1
"22/03/19","03:10",0.0,10.4,85.6,995.8,278.1,1.8,3.1,251.5,0.00,8.1,10.9,"03:05:20",1
"22/03/19","03:20",0.0,10.3,85.6,995.6,266.1,1.5,4.0,245.3,0.00,8.0,10.9,"03:19:52",1
"22/03/19","03:30",0.0,10.3,85.4,995.6,273.6,2.6,4.4,236.0,0.00,8.0,10.9,"03:25:20",1
"22/03/19","03:40",0.0,10.2,85.3,995.1,278.5,1.8,3.1,261.2,0.00,7.9,10.8,"03:38:40",1
"22/03/19","03:50",0.0,10.1,85.0,995.1,321.7,3.1,4.9,342.5,0.00,7.7,10.7,"03:46:40",1
"22/03/19","04:00",0.0,10.1,84.6,995.6,312.2,3.5,5.4,313.0,0.00,7.7,10.8,"03:56:00",1
"22/03/19","04:10",0.0,10.0,84.2,995.3,307.0,3.2,6.0,329.2,0.00,7.5,10.8,"04:00:56",1
"22/03/19","04:20",0.0,10.0,83.9,995.6,339.1,2.7,4.7,336.2,0.00,7.4,10.8,"04:17:52",1
"22/03/19","04:30",0.0,9.9,84.0,995.3,315.0,3.2,5.1,315.5,0.00,7.4,10.8,"04:27:12",1
"22/03/19","04:40",0.0,9.9,84.0,996.0,325.4,4.2,6.0,331.2,0.00,7.4,10.7,"04:38:16",1
"22/03/19","04:50",0.0,9.8,84.0,996.0,318.5,4.0,7.0,336.2,0.00,7.3,10.9,"04:47:20",1
"22/03/19","05:00",0.0,9.8,83.9,996.5,314.9,4.2,7.8,291.5,0.00,7.3,10.8,"04:51:44",1
"22/03/19","05:10",0.0,9.7,84.2,997.0,297.3,3.2,6.4,307.7,0.00,7.2,10.9,"05:05:52",1
"22/03/19","05:20",0.0,9.6,84.5,996.5,281.5,3.2,5.2,290.1,0.00,7.2,10.6,"05:10:48",1
"22/03/19","05:30",0.0,9.6,84.6,997.4,319.9,4.4,6.8,329.9,0.00,7.2,10.7,"05:29:36",1
"22/03/19","05:40",0.0,9.3,85.4,997.0,316.9,4.7,6.5,309.3,0.00,7.0,10.7,"05:32:00",1
"22/03/19","05:50",0.0,9.1,86.2,997.0,323.3,4.6,7.3,339.3,0.00,7.0,10.8,"05:45:52",1
"22/03/19","06:00",0.0,9.1,86.6,997.2,331.8,5.2,7.4,323.7,0.00,7.0,10.6,"05:52:32",1
"22/03/19","06:10",0.0,8.9,86.9,997.0,323.9,5.6,8.9,329.5,0.00,6.9,10.6,"06:04:08",1
"22/03/19","06:20",0.0,9.0,86.6,997.0,332.5,5.9,8.6,338.9,0.00,6.9,10.6,"06:12:18",1
"22/03/19","06:30",0.0,8.8,86.3,997.0,333.7,5.6,8.6,334.2,0.00,6.7,10.7,"06:29:38",1
"22/03/19","06:40",0.0,8.9,85.8,997.4,329.8,5.1,8.9,329.6,0.00,6.7,10.7,"06:33:04",1
"22/03/19","06:50",0.0,8.9,85.5,997.7,331.4,5.6,8.0,335.7,0.00,6.6,10.6,"06:42:08",1
"22/03/19","07:00",0.0,9.0,84.7,997.9,325.3,5.1,7.5,322.6,0.00,6.6,10.6,"06:57:04",1
"22/03/19","07:10",0.0,9.0,84.1,997.7,330.7,5.5,10.8,313.9,0.00,6.5,10.5,"07:05:16",1
"22/03/19","07:20",0.0,8.9,83.4,997.4,324.2,4.9,7.7,334.7,0.01,6.3,10.5,"07:11:28",1
"22/03/19","07:30",0.0,8.9,82.8,998.2,329.5,5.0,7.1,328.7,0.02,6.2,10.6,"07:28:40",1
"22/03/19","07:40",0.0,9.0,82.2,998.4,332.1,5.4,11.0,349.7,0.02,6.2,10.3,"07:36:56",1
"22/03/19","07:50",0.0,9.1,81.5,998.9,318.7,4.9,7.4,324.1,0.03,6.1,10.4,"07:43:04",1
"22/03/19","08:00",0.0,9.1,81.0,999.1,309.1,4.1,7.4,324.4,0.06,6.1,10.2,"07:59:20",1
"22/03/19","08:10",0.0,9.3,80.8,998.9,304.3,2.3,3.2,302.6,0.05,6.2,10.2,"08:02:56",1
"22/03/19","08:20",0.0,9.2,80.4,998.9,269.9,2.3,7.5,229.2,0.03,6.0,10.3,"08:19:36",1
"22/03/19","08:30",0.0,9.2,80.1,999.3,322.5,4.6,7.1,280.0,0.03,6.0,10.4,"08:20:32",1
"22/03/19","08:40",0.0,9.3,80.1,999.3,306.7,2.3,4.5,348.5,0.05,6.1,10.5,"08:30:48",1
"22/03/19","08:50",0.0,9.5,79.7,999.3,305.4,3.6,6.4,235.6,0.11,6.2,10.4,"08:45:28",1
"22/03/19","09:00",0.0,9.7,79.0,999.3,289.7,3.0,7.9,318.9,0.13,6.3,10.4,"08:57:28",1
"22/03/19","09:10",0.0,9.7,78.4,999.8,319.0,3.4,8.1,329.5,0.11,6.2,10.3,"09:01:44",1
"22/03/19","09:20",0.0,9.8,78.2,1000.0,296.2,3.0,5.1,267.2,0.09,6.2,10.4,"09:15:04",1
"22/03/19","09:30",0.0,9.8,78.4,999.8,311.4,2.6,4.9,332.5,0.11,6.3,10.3,"09:20:56",1
"22/03/19","09:40",0.0,9.8,78.0,999.8,310.3,2.7,4.1,339.5,0.10,6.2,10.4,"09:38:16",1
"22/03/19","09:50",0.0,10.0,77.7,999.8,307.5,2.3,4.8,353.5,0.11,6.3,10.5,"09:44:48",1
"22/03/19","10:00",0.0,9.7,77.7,1000.0,315.3,3.4,6.7,318.5,0.12,6.0,10.6,"09:55:28",1
"22/03/19","10:10",0.0,9.7,79.0,1000.3,295.8,3.2,6.8,347.7,0.11,6.3,10.4,"10:01:44",1
"22/03/19","10:20",0.0,9.6,80.5,999.6,300.1,2.5,4.9,335.3,0.13,6.5,10.4,"10:10:24",1
"22/03/19","10:30",0.0,10.1,80.5,999.3,243.8,1.1,2.0,243.2,0.16,6.9,10.5,"10:26:56",1
"22/03/19","10:40",0.0,10.2,80.1,999.1,238.7,1.6,3.2,314.9,0.17,7.0,10.3,"10:38:48",1
"22/03/19","10:50",0.0,10.2,78.8,999.1,288.1,1.6,3.2,315.6,0.16,6.7,10.6,"10:48:40",1
"22/03/19","11:00",0.0,10.0,77.3,999.3,291.4,2.6,4.8,313.1,0.12,6.3,10.6,"10:53:44",1
"22/03/19","11:10",0.0,10.2,76.3,998.4,311.2,3.9,6.6,321.3,0.24,6.3,10.5,"11:01:20",1
"22/03/19","11:20",0.0,10.7,75.2,998.6,310.0,3.5,6.7,343.3,0.34,6.5,10.6,"11:13:36",1
"22/03/19","11:30",0.0,11.0,73.7,998.9,330.9,3.1,5.9,339.8,0.28,6.5,10.8,"11:28:48",1
"22/03/19","11:40",0.0,10.6,73.6,998.4,309.9,3.7,5.8,350.2,0.16,6.1,10.7,"11:32:48",1
"22/03/19","11:50",0.0,10.9,73.9,998.9,314.0,1.7,3.5,338.2,0.14,6.5,10.8,"11:46:48",1
"22/03/19","12:00",0.0,10.4,73.8,999.1,309.3,3.7,6.2,330.8,0.10,6.0,10.8,"11:52:48",1
"22/03/19","12:10",0.0,10.1,74.6,998.6,302.9,3.2,5.1,312.2,0.07,5.8,10.8,"12:04:24",1
"22/03/19","12:20",0.0,9.9,76.2,999.1,294.7,3.1,5.4,309.5,0.09,6.0,10.7,"12:10:08",1
"22/03/19","12:30",0.0,9.7,77.6,998.9,282.4,3.0,5.0,339.0,0.10,6.0,10.9,"12:28:16",1
"22/03/19","12:40",0.0,10.1,79.2,998.4,310.4,2.8,4.9,347.8,0.18,6.7,10.8,"12:36:56",1
"22/03/19","12:50",0.0,10.5,77.4,998.2,339.9,1.8,4.1,338.4,0.22,6.8,10.7,"12:47:28",1
"22/03/19","13:00",0.0,10.5,76.4,998.4,306.3,1.7,3.2,326.3,0.12,6.6,10.7,"12:51:12",1
"22/03/19","13:10",0.0,10.7,75.7,998.4,319.5,3.0,4.9,342.5,0.14,6.6,10.9,"13:02:32",1
"22/03/19","13:20",0.0,10.9,76.1,998.2,288.5,2.3,4.2,296.4,0.15,6.9,10.9,"13:13:20",1
"22/03/19","13:30",0.0,10.7,75.3,998.6,276.1,2.6,6.0,238.5,0.17,6.6,10.9,"13:23:52",1
"22/03/19","13:40",0.0,10.5,75.2,998.4,294.8,3.0,5.2,304.9,0.10,6.3,11.1,"13:31:20",1
"22/03/19","13:50",0.0,10.7,75.0,997.9,307.0,3.0,7.1,320.9,0.15,6.5,10.9,"13:43:28",1
"22/03/19","14:00",0.0,11.2,75.4,997.9,295.3,3.0,5.1,340.1,0.30,7.1,10.9,"13:57:36",1
"22/03/19","14:10",0.0,10.9,73.5,998.2,267.6,3.0,4.8,244.6,0.23,6.4,11.1,"14:01:52",1
"22/03/19","14:20",0.0,11.0,73.4,998.6,297.7,2.6,4.4,319.4,0.13,6.5,11.0,"14:16:16",1
"22/03/19","14:30",0.0,10.9,72.7,998.4,290.2,3.7,6.6,322.3,0.14,6.2,11.1,"14:28:56",1
"22/03/19","14:40",0.0,10.5,74.0,998.6,287.5,4.0,6.4,329.8,0.07,6.1,11.0,"14:38:32",1
"22/03/19","14:50",0.0,10.2,75.8,998.6,293.9,3.9,7.5,326.7,0.08,6.2,10.9,"14:40:08",1
"22/03/19","15:00",0.2,10.2,78.5,998.9,305.5,3.0,4.8,327.7,0.16,6.7,11.0,"14:57:36",1
"22/03/19","15:10",0.0,10.5,80.6,998.9,283.8,2.3,3.6,268.6,0.22,7.3,11.0,"15:00:56",1
"22/03/19","15:20",0.0,10.4,80.9,998.9,286.9,2.1,3.2,343.8,0.21,7.3,11.1,"15:19:20",1
"22/03/19","15:30",0.0,10.4,81.1,998.9,294.3,2.0,3.6,323.8,0.13,7.3,11.1,"15:26:08",1
"22/03/19","15:40",0.0,10.2,81.3,999.1,288.2,2.3,4.1,268.2,0.09,7.2,11.1,"15:33:36",1
"22/03/19","15:50",0.0,9.9,81.2,999.8,281.4,3.1,4.7,303.0,0.05,6.9,11.1,"15:47:16",1
"22/03/19","16:00",0.0,9.8,82.2,999.3,291.0,3.0,4.5,343.0,0.04,7.0,11.1,"15:55:28",1
"22/03/19","16:10",0.0,9.4,83.2,999.6,300.3,3.6,7.3,339.1,0.06,6.7,11.2,"16:03:52",1
"22/03/19","16:20",0.2,9.4,84.3,999.8,282.8,2.5,3.7,262.1,0.06,6.9,11.2,"16:13:30",1
"22/03/19","16:30",0.0,9.3,84.9,999.6,295.1,2.6,5.0,320.4,0.11,6.9,11.1,"16:27:52",1
"22/03/19","16:40",0.0,9.1,85.3,999.6,303.9,3.1,4.9,332.4,0.04,6.8,11.3,"16:35:54",1
"22/03/19","16:50",0.0,9.0,85.5,999.6,306.6,2.3,3.6,341.4,0.02,6.7,11.2,"16:44:52",1
"22/03/19","17:00",0.0,8.9,86.0,999.6,301.6,2.2,3.2,341.0,0.03,6.7,11.4,"16:55:00",1
"22/03/19","17:10",0.0,8.9,86.2,1000.0,302.3,2.5,3.6,320.9,0.04,6.8,11.2,"17:03:46",1
"22/03/19","17:20",0.0,9.0,86.3,1000.3,315.6,2.0,4.0,341.5,0.05,6.9,11.3,"17:10:36",1
"22/03/19","17:30",0.0,9.2,85.9,1000.0,311.7,0.8,1.4,327.4,0.02,7.0,11.6,"17:28:24",1
"22/03/19","17:40",0.0,9.1,85.6,1000.0,357.5,1.2,2.9,333.2,0.00,6.9,11.2,"17:38:56",1
"22/03/19","17:50",0.0,8.9,85.2,1000.0,324.0,1.3,3.5,338.4,0.00,6.6,11.2,"17:48:32",1
"22/03/19","18:00",0.0,8.8,84.9,1000.3,331.5,2.0,4.1,336.3,0.00,6.4,11.3,"17:58:36",1
"22/03/19","18:10",0.0,8.6,84.8,1000.5,333.5,2.1,3.6,342.1,0.00,6.2,11.2,"18:06:18",1
"22/03/19","18:20",0.0,8.5,84.5,1000.8,339.6,2.6,4.8,341.5,0.00,6.1,11.2,"18:13:12",1
"22/03/19","18:30",0.0,8.4,84.4,1000.8,336.7,3.1,5.4,338.5,0.00,6.0,11.2,"18:29:44",1
"22/03/19","18:40",0.0,8.2,84.4,1001.0,332.8,3.1,5.4,344.9,0.00,5.8,11.2,"18:38:32",1
"22/03/19","18:50",0.0,8.1,84.4,1000.8,326.4,3.2,5.1,334.1,0.00,5.7,11.2,"18:43:44",1
"22/03/19","19:00",0.0,7.9,84.4,1001.0,334.5,2.7,5.5,302.7,0.00,5.5,11.1,"18:59:04",1
"22/03/19","19:10",0.0,7.9,84.3,1001.0,324.9,3.4,7.3,335.4,0.00,5.5,11.3,"19:02:08",1
"22/03/19","19:20",0.0,7.9,84.0,1001.7,322.2,3.2,4.9,327.1,0.00,5.4,11.2,"19:15:52",1
"22/03/19","19:30",0.0,7.8,83.6,1001.7,325.1,4.6,7.3,333.0,0.00,5.2,11.0,"19:22:40",1
"22/03/19","19:40",0.0,7.6,83.5,1001.7,334.1,4.1,6.3,347.7,0.00,5.0,11.2,"19:35:56",1
"22/03/19","19:50",0.2,7.5,83.9,1001.7,328.0,4.2,6.7,342.3,0.00,5.0,11.1,"19:43:38",1
"22/03/19","20:00",0.4,7.2,84.9,1001.9,328.1,2.7,3.7,337.3,0.00,4.9,11.1,"19:57:22",1
"22/03/19","20:10",0.4,7.0,86.1,1001.9,321.9,2.8,4.9,340.5,0.00,4.9,11.1,"20:05:18",1
"22/03/19","20:20",0.4,6.8,87.1,1002.4,328.4,3.4,5.6,341.4,0.00,4.8,11.1,"20:12:52",1
"22/03/19","20:30",0.4,6.7,87.9,1002.6,313.0,3.1,4.4,347.4,0.00,4.9,11.0,"20:25:30",1
"22/03/19","20:40",0.2,6.6,88.6,1002.9,322.1,2.6,3.6,339.3,0.00,4.9,11.0,"20:33:12",1
"22/03/19","20:50",0.2,6.6,89.1,1003.1,327.0,2.0,2.6,335.5,0.00,5.0,11.0,"20:40:44",1
"22/03/19","21:00",0.0,6.6,89.5,1003.1,305.2,1.8,2.5,318.7,0.00,5.0,10.9,"20:53:08",1
"22/03/19","21:10",0.0,6.5,90.1,1003.4,300.2,2.0,3.1,320.4,0.00,5.0,10.9,"21:08:54",1
"22/03/19","21:20",0.2,6.5,90.5,1003.4,330.5,1.6,2.7,327.0,0.00,5.1,10.8,"21:16:06",1
"22/03/19","21:30",0.0,6.4,90.9,1003.6,325.0,2.2,2.9,335.3,0.00,5.1,10.7,"21:29:02",1
"22/03/19","21:40",0.0,6.3,91.4,1003.4,322.4,2.5,3.6,317.3,0.00,5.0,10.7,"21:39:02",1
"22/03/19","21:50",0.0,6.2,91.8,1003.4,317.1,2.3,4.0,340.7,0.00,5.0,10.8,"21:43:58",1
"22/03/19","22:00",0.0,6.2,92.2,1003.6,295.6,2.0,2.9,314.6,0.00,5.1,10.6,"21:58:30",1
"22/03/19","22:10",0.0,6.2,92.5,1003.6,315.3,2.6,4.3,311.5,0.00,5.1,10.6,"22:07:04",1
"22/03/19","22:20",0.0,6.1,92.7,1003.8,291.1,2.6,3.6,313.8,0.00,5.0,10.7,"22:18:36",1
"22/03/19","22:30",0.0,6.1,92.9,1003.8,318.3,2.2,3.4,318.5,0.00,5.1,10.8,"22:23:46",1
"22/03/19","22:40",0.0,6.1,93.0,1004.3,280.7,0.5,1.4,308.2,0.00,5.1,10.6,"22:32:02",1
"22/03/19","22:50",0.0,6.0,93.2,1004.3,290.5,1.2,2.6,342.2,0.00,5.0,10.8,"22:46:22",1
"22/03/19","23:00",0.0,6.3,93.1,1005.0,307.2,2.2,4.0,313.6,0.00,5.3,10.6,"22:52:42",1
"22/03/19","23:10",0.0,6.2,93.0,1005.0,322.4,1.7,2.7,308.0,0.00,5.2,10.4,"23:09:30",1
"22/03/19","23:20",0.0,6.2,93.0,1005.5,302.7,3.0,4.9,317.2,0.00,5.2,10.6,"23:19:20",1
"22/03/19","23:30",0.0,6.1,92.6,1005.5,324.2,3.6,5.2,335.9,0.00,5.0,10.6,"23:23:56",1
"22/03/19","23:40",0.0,6.2,92.0,1005.5,325.8,3.6,5.4,298.3,0.00,5.0,10.6,"23:33:04",1
"22/03/19","23:50",0.0,6.2,91.4,1005.0,309.1,2.5,3.6,317.1,0.00,4.9,10.5,"23:45:02",1
"22/03/19","24:00",0.0,6.1,91.1,1005.5,312.5,3.0,4.3,340.9,0.00,4.8,10.5,"23:53:20",1
